Flight Track Log - Related Links

Times and Time Zones

All times are in EDT time to prevent confusion due to time zone crossing. See the DAL1562 flight status page for this flight to view local times or setup timezone preferences in your user account.

Time Position Orientation Groundspeed Altitude Reporting Facility
EDT Latitude Longitude Course Direction KTS MPH feet Rate Location/Type
Sat 10:29:54 PM 40.7633 -111.9997 90° East 183 211 5,500  Level Salt Lake Center
Sat 10:30:55 PM 40.7636 -112.0789 270° West 266 306 6,700 2,311 Climbing Salt Lake Center
Sat 10:31:56 PM 40.8206 -112.1503 317° Northwest 274 315 10,200 3,087 Climbing Salt Lake Center
Sat 10:32:00 PM 41.1333 -111.8881 90° East  Level FlightAware Approximate
Sat 10:33:00 PM 41.0987 -111.7259 135° Southeast  Level FlightAware Approximate
Sat 10:33:13 PM 40.8978 -112.2069 331° Northwest 289 333 13,800  Level Salt Lake Center
Sat 10:34:00 PM 41.0206 -111.5929 78° East  Level FlightAware Approximate
Sat 10:34:14 PM 40.9408 -112.1208 56° Northeast 308 354 15,800  Level Salt Lake Center
Sat 10:35:00 PM 41.0333 -111.4164 90° East  Level FlightAware Approximate
Sat 10:35:15 PM 40.9658 -111.9967 75° East 360 414 16,900  Level Salt Lake Center
Sat 10:36:17 PM 41.0089 -111.8725 65° Northeast 374 430 18,900 1,805 Climbing Salt Lake Center
Sat 10:37:18 PM 41.0572 -111.7275 66° East 387 445 20,600 1,574 Climbing Salt Lake Center
Sat 10:38:19 PM 41.1031 -111.5831 67° East 422 486 22,100 1,623 Climbing Salt Lake Center
Sat 10:39:20 PM 41.1375 -111.4281 74° East 438 504 23,900 1,756 Climbing Salt Lake Center
Sat 10:40:22 PM 41.1678 -111.2714 76° East 440 506 25,700 1,707 Climbing Salt Lake Center
Sat 10:41:23 PM 41.1986 -111.1169 75° East 435 501 27,400 1,426 Climbing Salt Lake Center
Sat 10:42:24 PM 41.2486 -110.9661 66° East 445 512 28,600 1,033 Climbing Salt Lake Center
Sat 10:43:25 PM 41.2942 -110.8017 70° East 460 529 29,500 976 Climbing Salt Lake Center
Sat 10:44:27 PM 41.3472 -110.6172 69° East 476 548 30,600 952 Climbing Salt Lake Center
Sat 10:45:31 PM 41.3922 -110.4561 70° East 485 558 31,500 787 Climbing Salt Lake Center
Sat 10:46:29 PM 41.4386 -110.2911 69° East 495 570 32,200 1,109 Climbing Salt Lake Center
Sat 10:47:30 PM 41.4933 -110.0958 69° East 501 577 33,700 1,131 Climbing Salt Lake Center
Sat 10:48:31 PM 41.5389 -109.9317 70° East 496 571 34,500 836 Climbing Salt Lake Center
Sat 10:49:32 PM 41.5922 -109.7350 70° East 503 579 35,400 829 Climbing Salt Lake Center
Sat 10:50:34 PM 41.6386 -109.5647 70° East 507 583 36,200 732 Climbing Salt Lake Center
Sat 10:51:35 PM 41.6867 -109.3933 69° East 509 586 36,900 393 Climbing Salt Lake Center
Sat 10:52:36 PM 41.7411 -109.1897 70° East 513 590 37,000 49 Climbing Salt Lake Center
Sat 10:53:37 PM 41.7856 -109.0133 71° East 517 595 37,000  Level Salt Lake Center
Sat 10:54:38 PM 41.8325 -108.8378 70° East 519 597 37,000  Level Salt Lake Center
Sat 10:55:39 PM 41.8864 -108.6314 71° East 523 602 37,000  Level Salt Lake Center
Sat 10:56:40 PM 41.9333 -108.4575 70° East 520 598 37,000  Level Salt Lake Center
Sat 10:57:41 PM 41.9778 -108.2800 71° East 524 603 37,000  Level Salt Lake Center
Sat 10:58:43 PM 42.0322 -108.0753 70° East 523 602 37,000  Level Salt Lake Center
Sat 10:59:44 PM 42.0736 -107.8919 73° East 534 615 37,000  Level Salt Lake Center
Sat 11:00:30 PM 42.1136 -107.7456 70° East 525 604 37,000  Level Denver Center
Sat 11:01:31 PM 42.1567 -107.5664 72° East 525 604 37,000  Level Denver Center
Sat 11:02:32 PM 42.2075 -107.3575 72° East 526 605 37,000  Level Denver Center
Sat 11:03:33 PM 42.2517 -107.1769 72° East 529 609 37,000  Level Denver Center
Sat 11:04:34 PM 42.2944 -106.9969 72° East 528 608 37,000  Level Denver Center
Sat 11:05:35 PM 42.3461 -106.7892 71° East 526 605 37,000  Level Denver Center
Sat 11:06:36 PM 42.3903 -106.6031 72° East 526 605 37,000  Level Denver Center
Sat 11:07:37 PM 42.4333 -106.4244 72° East 523 602 37,000  Level Denver Center
Sat 11:08:38 PM 42.4767 -106.2469 72° East 520 598 37,000  Level Denver Center
Sat 11:09:39 PM 42.5242 -106.0375 73° East 520 598 37,000  Level Denver Center
Sat 11:10:40 PM 42.5658 -105.8586 72° East 521 600 37,000  Level Denver Center
Sat 11:11:41 PM 42.6142 -105.6497 72° East 519 597 37,000  Level Denver Center
Sat 11:12:42 PM 42.6483 -105.5006 73° East 519 597 37,000  Level Denver Center
Sat 11:13:43 PM 42.6944 -105.2906 73° East 519 597 37,000  Level Denver Center
Sat 11:14:44 PM 42.7419 -105.0814 73° East 515 593 37,000  Level Denver Center
Sat 11:15:45 PM 42.7828 -104.9014 73° East 516 594 37,000  Level Denver Center
Sat 11:16:46 PM 42.8239 -104.7203 73° East 517 595 37,000  Level Denver Center
Sat 11:17:47 PM 42.8636 -104.5361 74° East 520 598 37,000  Level Denver Center
Sat 11:18:48 PM 42.9228 -104.3325 68° East 516 594 37,000  Level Denver Center
Sat 11:19:49 PM 42.9814 -104.1650 64° Northeast 509 586 37,000  Level Denver Center
Sat 11:20:50 PM 43.0408 -103.9964 64° Northeast 512 589 37,000  Level Denver Center
Sat 11:21:51 PM 43.1103 -103.8042 64° Northeast 506 582 37,000  Level Denver Center
Sat 11:22:52 PM 43.1700 -103.6394 64° Northeast 504 580 37,000  Level Denver Center
Sat 11:23:53 PM 43.2350 -103.4778 61° Northeast 505 581 37,000  Level Denver Center
Sat 11:24:53 PM 43.3169 -103.2942 58° Northeast 507 583 37,000  Level Denver Center
Sat 11:25:54 PM 43.3842 -103.1344 60° Northeast 505 581 37,000  Level Denver Center
Sat 11:26:55 PM 43.4339 -102.9578 69° East 515 593 37,000  Level Denver Center
Sat 11:27:56 PM 43.4739 -102.7408 76° East 524 603 37,000  Level Denver Center
Sat 11:28:57 PM 43.5022 -102.5567 78° East 516 594 37,000  Level Denver Center
Sat 11:29:58 PM 43.5317 -102.3789 77° East 500 575 37,000  Level Denver Center
Sat 11:30:59 PM 43.5642 -102.1736 78° East 493 567 37,000  Level Denver Center
Sat 11:31:59 PM 43.5942 -101.9894 77° East 490 564 37,000  Level Denver Center
Sat 11:33:00 PM 43.6225 -101.8047 78° East 494 568 37,000  Level Denver Center
Sat 11:34:01 PM 43.6517 -101.6167 78° East 500 575 37,000  Level Denver Center
Sat 11:35:02 PM 43.6803 -101.4289 78° East 502 578 37,000  Level Denver Center
Sat 11:36:03 PM 43.7097 -101.2444 77° East 497 572 37,000  Level Denver Center
Sat 11:37:04 PM 43.7364 -101.0600 79° East 493 567 37,000  Level Denver Center
Sat 11:38:04 PM 43.7642 -100.8758 78° East 491 565 37,000  Level Denver Center
Sat 11:39:05 PM 43.7919 -100.6897 78° East 494 568 37,000  Level Denver Center
Sat 11:40:06 PM 43.8189 -100.5022 79° East 498 573 37,000  Level Denver Center
Sat 11:41:07 PM 43.8469 -100.3125 78° East 501 577 37,000  Level Denver Center
Sat 11:42:13 PM 43.8789 -100.0903 79° East 499 574 37,000  Level Minneapolis Center
Sat 11:43:13 PM 43.9044 -99.9017 79° East 500 575 37,000  Level Minneapolis Center
Sat 11:44:14 PM 43.9311 -99.7156 79° East 497 572 37,000  Level Minneapolis Center
Sat 11:45:15 PM 43.9511 -99.5667 79° East 495 570 37,000  Level Minneapolis Center
Sat 11:46:16 PM 43.9817 -99.3408 79° East 498 573 37,000  Level Minneapolis Center
Sat 11:47:16 PM 44.0069 -99.1483 80° East 505 581 37,000  Level Minneapolis Center
Sat 11:48:17 PM 44.0322 -98.9561 80° East 508 585 37,000  Level Minneapolis Center
Sat 11:49:18 PM 44.0575 -98.7622 80° East 511 588 37,000  Level Minneapolis Center
Sat 11:50:18 PM 44.0842 -98.5592 80° East 510 587 37,000  Level Minneapolis Center
Sat 11:51:19 PM 44.1083 -98.3669 80° East 507 583 37,000  Level Minneapolis Center
Sat 11:52:20 PM 44.1314 -98.1750 80° East 505 581 37,000  Level Minneapolis Center
Sat 11:53:20 PM 44.1572 -97.9828 79° East 506 582 37,000  Level Minneapolis Center
Sat 11:54:21 PM 44.1856 -97.7947 78° East 499 574 37,000  Level Minneapolis Center
Sat 11:55:22 PM 44.2186 -97.6047 76° East 505 581 37,000  Level Minneapolis Center
Sat 11:56:22 PM 44.2514 -97.4158 76° East 503 579 37,000  Level Minneapolis Center
Sat 11:57:23 PM 44.2894 -97.1878 77° East 504 580 37,000  Level Minneapolis Center
Sat 11:58:24 PM 44.3208 -96.9992 77° East 500 575 37,000  Level Minneapolis Center
Sat 11:59:24 PM 44.3536 -96.8114 76° East 497 572 37,000  Level Minneapolis Center
Sun 12:00:25 AM 44.3844 -96.6222 77° East 497 572 37,000  Level Minneapolis Center
Sun 12:01:25 AM 44.4158 -96.4319 77° East 499 574 37,000  Level Minneapolis Center
Sun 12:02:26 AM 44.4406 -96.2806 77° East 496 571 37,000 -248 Level Minneapolis Center
Sun 12:03:26 AM 44.4708 -96.0897 77° East 495 570 36,500 -793 Descending Minneapolis Center
Sun 12:04:27 AM 44.5058 -95.8625 78° East 495 570 35,400 -1,636 Descending Minneapolis Center
Sun 12:05:27 AM 44.5347 -95.6728 78° East 496 571 33,200 -2,826 Descending Minneapolis Center
Sun 12:06:28 AM 44.5636 -95.4819 78° East 501 577 29,700 -3,273 Descending Minneapolis Center
Sun 12:07:28 AM 44.5917 -95.2856 79° East 511 588 26,600 -2,876 Descending Minneapolis Center
Sun 12:08:29 AM 44.6219 -95.0997 77° East 493 567 23,900 -2,400 Descending Minneapolis Center
Sun 12:09:53 AM 44.6531 -94.8819 79° East 479 551 20,800 -2,566 Descending Minneapolis Center
Sun 12:10:54 AM 44.6822 -94.6783 79° East 453 521 17,700 -2,579 Descending Minneapolis Center
Sun 12:11:54 AM 44.7022 -94.5369 79° East 430 495 15,600 -2,231 Descending Minneapolis Center
Sun 12:12:55 AM 44.7250 -94.3806 78° East 413 475 13,200 -2,331 Descending Minneapolis Center
Sun 12:13:55 AM 44.7464 -94.2300 79° East 394 453 10,900 -1,488 Descending Minneapolis Center
Sun 12:14:56 AM 44.7656 -94.0911 79° East 360 414 10,200 -595 Descending Minneapolis Center
Sun 12:15:56 AM 44.8069 -93.9786 63° Northeast 324 373 9,700 -1,100 Descending Minneapolis Center
Sun 12:16:56 AM 44.8589 -93.8519 60° Northeast 309 356 8,000 -1,339 Descending Minneapolis Center
Sun 12:17:57 AM 44.8992 -93.7472 61° Northeast 304 350 7,000 -595 Descending Minneapolis Center
Sun 12:18:57 AM 44.9375 -93.6517 60° Northeast 275 316 6,800 -793 Descending Minneapolis Center
Sun 12:19:58 AM 44.9725 -93.5631 61° Northeast 258 297 5,400 -942 Descending Minneapolis Center
Sun 12:20:58 AM 44.9894 -93.4742 75° East 225 259 4,900 -750 Descending Minneapolis Center
Sun 12:21:58 AM 44.9642 -93.4111 120° Southeast 186 214 3,900 -1,091 Descending Minneapolis Center
Sun 12:22:59 AM 44.9386 -93.3517 121° Southeast 179 206 2,700 -1,041 Descending Minneapolis Center
Sun 12:23:59 AM 44.9161 -93.2989 121° Southeast 159 183 1,800 -900 Descending Minneapolis Center

Login

Don't have an account? Register now (free) for customized features, flight alerts, and more!